Overview Statistics Trail Chart Weather Telemetry Raw packets
 

This is the latest recevied weather packets stored in our database for station/object KB8TTR. If no packets are shown the sender has not sent any weather packets the latest 10 day(s).

<< 36 37 38 39 40 41 42 >>
Time Temp. Humidity Pressure Rain* Wind** Luminosity Snow
1788368498 32.78° C 64% 1017.1 hPa 0 mm - 821 W/m² -
1788368193 32.22° C 67% 1017.3 hPa 0 mm - 815 W/m² -
1788367892 32.22° C 67% 1017.2 hPa 0 mm - 802 W/m² -
1788367588 32.22° C 67% 1017.4 hPa 0 mm - 779 W/m² -
1788367286 32.22° C 66% 1017.5 hPa 0 mm - 692 W/m² -
1788366982 31.67° C 68% 1017.6 hPa 0 mm - 771 W/m² -
1788366681 31.11° C 68% 1017.6 hPa 0 mm - 794 W/m² -
1788366380 31.67° C 68% 1017.6 hPa 0 mm - 243 W/m² -
1788366081 31.67° C 69% 1017.7 hPa 0 mm - 798 W/m² -
1788365770 32.22° C 66% 1017.7 hPa 0 mm - 283 W/m² -
1788365466 32.22° C 66% 1017.5 hPa 0 mm - 352 W/m² -
1788365162 31.67° C 67% 1017.6 hPa 0 mm - 781 W/m² -
1788364857 31.11° C 68% 1017.6 hPa 0 mm - 539 W/m² -
1788364555 31.67° C 67% 1017.5 hPa 0 mm - 775 W/m² -
1788364254 31.67° C 67% 1017.6 hPa 0 mm - 809 W/m² -
1788363949 31.67° C 67% 1017.6 hPa 0 mm - 344 W/m² -
1788363644 31.11° C 69% 1017.5 hPa 0 mm - 719 W/m² -
1788363342 31.11° C 70% 1017.6 hPa 0 mm - 514 W/m² -
1788363038 31.11° C 69% 1017.5 hPa 0 mm - 371 W/m² -
1788362735 31.11° C 68% 1017.4 hPa 0 mm - 321 W/m² -
1788362430 31.11° C 68% 1017.5 hPa 0 mm - 345 W/m² -
1788362126 31.11° C 69% 1017.3 hPa 0 mm - 658 W/m² -
1788361825 31.11° C 70% 1017.5 hPa 0 mm - 612 W/m² -
1788361520 30.56° C 70% 1017.3 hPa 0 mm - 574 W/m² -
1788361216 31.11° C 68% 1017.4 hPa 0 mm - 274 W/m² -

* Rain latest hour (hover to see other rain measurements)
** Current wind speed in m/s (hover to see current wind gust speed)